Regional Weather Roundup
Issued by NWS

Home | Current Version | Previous Version | Graphics & Text | Print | Product List | Glossary On
Versions: 1 2 3 4 5 6 7 8 9 10 11 12 13 14 15 16 17 18 19 20 21 22 23 24 25 26 27 28 29 30 31 32 33 34 35 36 37 38 39 40 41 42 43 44 45 46 47 48 49 50
000
ASUS44 KMEG 020610
RWRTN
TENNESSEE HOURLY STATE WEATHER ROUNDUP
NATIONAL WEATHER SERVICE MEMPHIS TN
1200 AM CST MON MAR 02 2015

TNZ002-004-019-021-049-052-054-088>092-020700-
WEST TENNESSEE

CITY           SKY/WX    TMP DP  RH WIND       PRES   REMARKS
MEMPHIS INTL   CLOUDY    38  35  89 NE10      30.39S WCI  31
NWS MEMPHIS      N/A     37 N/A N/A MISG        N/A
JACKSON        CLOUDY    36  33  89 N13       30.40S FOG     WCI  27
DYERSBURG      CLOUDY    34  21  60 NE8       30.44S WCI  27
UNION CITY     CLOUDY    32  32 100 N9        30.43R WCI  24
PARIS          CLOUDY    30  30 100 N7        30.41R WCI  23
LEXINGTON      CLOUDY    37  36  93 N9        30.37S WCI  31
SAVANNAH       CLOUDY    41  41 100 N10       30.37R
$$

TNZ008-025-027-028-033-062-065-066-020700-
NORTH MIDDLE TENNESSEE

CITY           SKY/WX    TMP DP  RH WIND       PRES   REMARKS
NASHVILLE      LGT RAIN  39  37  93 N10       30.38R FOG     WCI  32
CLARKSVILLE    LGT RAIN  34  32  92 N9        30.41S FOG     WCI  27
SMYRNA         CLOUDY    40  40 100 N15       30.38R FOG     WCI  32
COOKEVILLE     CLOUDY    48  48 100 SW3       30.29F
CROSSVILLE     CLOUDY    46  44  93 W5        30.30R FOG
$$

TNZ061-075-076-078-094-096-097-020700-
SOUTH MIDDLE TENNESSEE

CITY           SKY/WX    TMP DP  RH WIND       PRES   REMARKS
FAYETTEVILLE   CLOUDY    46  45  93 CALM        N/A  VSB 3/4
TULLAHOMA      CLOUDY    46  46 100 SW6       30.32S
WINCHESTER     CLOUDY    46  46 100 SE3       30.32F
MCMINNVILLE    CLOUDY    48  48 100 SW3       30.31F
COLUMBIA       CLOUDY   N/A N/A N/A N6        30.32R
SHELBYVILLE    CLOUDY    50  48  93 NW3       30.33S
$$

TNZ017-018-042-046-047-020700-
NORTHEAST TENNESSEE

CITY           SKY/WX    TMP DP  RH WIND       PRES   REMARKS
TRI CITIES     CLOUDY    42  42 100 S3        30.27F FOG
ELIZABETHTON   CLOUDY    43  43 100 CALM      30.26F
$$

TNZ012-013-036-069-073-074-020700-
CENTRAL EAST TENNESSEE

CITY           SKY/WX    TMP DP  RH WIND       PRES   REMARKS
KNOXVILLE      LGT RAIN  44  44 100 SW5       30.29F FOG
OAK RIDGE      LGT RAIN  45  43  93 SW6       30.30F FOG
GATLINBURG     CLOUDY    43  41  93 CALM      30.28F
MORRISTOWN     CLOUDY    43  43 100 SW7       30.28F VSB 1/4
$$

TNZ083-085-099-020700-
SOUTHEAST TENNESSEE

CITY           SKY/WX    TMP DP  RH WIND       PRES   REMARKS
CHATTANOOGA    CLOUDY    46  45  96 S3        30.32F FOG
$$

SKY/WX REPORTED AS FAIR MEANS FEW OR NO CLOUDS BELOW
12 THOUSAND FEET.




USA.gov is the U.S. government's official web portal to all federal, state and local government web resources and services.